Retour au catalogue

STARLINK-31031

ActifCommunicationsVLEO
NORAD 58711·PAYLOAD·🇺🇸 United States

Lancé Jan 3, 2024 depuis Vandenberg Space Force Base

Loading…

Prochains Passages (prochaines 24 heures)

TLE

FraisSource: CelesTrak SupGP

Époque: Sep 15, 2026, 02:03 UTC

1 58711C 24002G   26258.08590278 -.00025064  00000+0 -74057-3 0  2584
2 58711  53.1574  66.6885 0001092  89.6008 229.7287 15.34401789    11

Suivez STARLINK-31031 en temps réel avec AllMySat

Download on the App Store